Hourly Data Report for October 03, 2017

All times are specified in Local Standard Time (LST). Add 1 hour to adjust for Daylight Saving Time where and when it is observed.

DAUPHIN
MANITOBA

51°06'03.000" N
100°03'09.000" W
304.50 m
5040689
71036
YDN

Related Data

No related data is available for this station

Download Data

Hourly Data (October 2017)
Hourly Data Report for October 3, 2017
Temp Definition
°C
Dew Point Temp Definition
°C
Rel Hum Definition
%
Wind Dir Definition
10's deg

Wind Spd Definition
km/h
Visibility Definition
km
Stn Press Definition
kPa
Hmdx Definition


Wind Chill Definition


Weather Definition


TIME
00:00 Legend Double Dagger 5.8 1.9 76 24 13 16.1 97.45     LegendNANA
01:00 Legend Double Dagger 5.0 1.7 79 22 13 16.1 97.44     LegendNANA
02:00 Legend Double Dagger 4.4 1.4 81 23 15 16.1 97.47     LegendNANA
03:00 Legend Double Dagger 5.3 1.5 76 22 15 16.1 97.60     LegendNANA
04:00 Legend Double Dagger 5.8 1.7 75 25 17 16.1 97.64     LegendNANA
05:00 Legend Double Dagger 4.9 1.4 78 25 13 16.1 97.72     LegendNANA
06:00 Legend Double Dagger 5.0 1.5 78 26 15 16.1 97.79     LegendNANA
07:00 Legend Double Dagger 4.4 1.4 81 24 15 16.1 97.87     LegendNANA
08:00 Legend Double Dagger 5.1 1.8 79 25 11 16.1 97.90     LegendNANA
09:00 Legend Double Dagger 6.7 2.8 76 26 15 16.1 97.95     LegendNANA
10:00 Legend Double Dagger 7.5 6.1 91 31 13 16.1 97.99     LegendNANA
11:00 Legend Double Dagger 7.9 6.2 89 30 13 16.1 98.04     LegendNANA
12:00 Legend Double Dagger 7.9 6.3 90 31 17 12.9 98.08     LegendNANA
13:00 Legend Double Dagger 7.9 7.2 95 26 17 4.8 98.09     Fog
14:00 Legend Double Dagger 8.3 7.2 93 27 21 14.5 98.09     LegendNANA
15:00 Legend Double Dagger 8.2 7.9 98 34 18 2.4 98.15     Rain,Fog
16:00 Legend Double Dagger 8.4 8.1 98 34 17 3.2 98.23     Rain,Fog
17:00 Legend Double Dagger 7.6 7.3 98 34 18 2.8 98.28     Rain,Fog
18:00 Legend Double Dagger 7.2 6.9 98 34 17 6.4 98.33     Fog
19:00 Legend Double Dagger 6.6 6.2 97 34 17 16.1 98.39     LegendNANA
20:00 Legend Double Dagger 6.4 5.8 96 34 17 16.1 98.44     LegendNANA
21:00 Legend Double Dagger 6.0 5.3 95 32 11 16.1 98.46     LegendNANA
22:00 Legend Double Dagger 5.9 5.2 95 29 11 16.1 98.51     LegendNANA
23:00 Legend Double Dagger 6.0 5.3 95 29 13 6.4 98.53     Fog

Notes on Data Quality.

Legend

  • E = Estimated
  • M = Missing
  • NA = Not Available
  • ‡ = Partner data that is not subject to review by the National Climate Archives
Date modified: